Regional Weather Roundup
Issued by NWS

Home | Current Version | Previous Version | Text Only | Print | Product List | Glossary On
Versions: 1 2 3 4 5 6 7 8 9 10 11 12 13 14 15 16 17 18 19 20 21 22 23 24 25 26 27 28 29 30 31 32 33 34 35 36 37 38 39 40 41 42 43 44 45 46 47 48 49 50
000
ASCA42 TJSJ 290510
RWRPR
PUERTO RICO/U.S. VIRGIN ISLANDS HOURLY WEATHER ROUNDUP
NATIONAL WEATHER SERVICE SAN JUAN PR
100 AM AST FRI APR 29 2016

PRZ001-004-290600-
PUERTO RICO

CITY           SKY/WX    TMP DP  RH WIND       PRES   REMARKS
SAN JUAN LMM   PTCLDY    81  75  83 CALM      29.94F
PONCE          LGT RAIN  75  75 100 S12       29.94S
AGUADILLA      PTCLDY    73  72  94 CALM      29.95F
CEIBA          MOCLDY    79  75  89 SE5       29.96F
$$

PRZ006-007-290600-
U.S. VIRGIN ISLANDS

CITY           SKY/WX    TMP DP  RH WIND       PRES   REMARKS
CHARLOTTE AMA  PTCLDY    81  75  83 E5        29.94F
CHRISTIANSTED  PTCLDY    77  73  88 N3        29.95F
$$

HOURLY WEATHER ROUNDUP FOR THE NEWS MEDIA

CITY           SKY/WX    TMP DP  RH WIND       PRES   REMARKS
ORLANDO        CLEAR     73  69  87 S3        30.01F
NEW YORK       CLOUDY    49  36  61 CALM      30.08R
NEWARK         CLOUDY    49  38  65 CALM      30.06S
CHICAGO        CLOUDY    42  41  96 N8        30.00S FOG
HARTFORD       CLOUDY    46  36  68 S7        30.10S
BOSTON         CLOUDY    46  34  62 SE7       30.11S
DALLAS         MOCLDY    77  58  51 E17G25    29.77F
PHILADELPHIA   CLOUDY    45  41  86 NE10      30.05F
LOS ANGELES    PTCLDY    58  51  78 NW5       29.94R
WASHINGTON DC  CLOUDY    47  44  90 NE6       30.02S


USA.gov is the U.S. government's official web portal to all federal, state and local government web resources and services.